Hourly Data Report for September 26, 2021

OTTAWA INTL A
ONTARIO
Current Station Operator: NAVCAN

45°19'00.000" N
75°40'00.000" W
114.90 m
6106001
71628
YOW

Download Data

Hourly Data (September 2021)
Hourly Data Report for September 26, 2021
TIME
LST
Temp Definition
°C
Dew Point Definition
°C
Rel Hum Definition
%
Precip. Amount Definition
mm

Wind Dir Definition
10's deg

Wind Spd Definition
km/h
Visibility Definition
km
Stn Press Definition
kPa
Hmdx Definition


Wind Chill Definition


Weather Definition


00:00 14.7 11.1 79   29 23 24.1 99.73     LegendNANA
01:00 13.8 11.1 83   27 16 24.1 99.73     Cloudy
02:00 12.9 10.1 83   26 16 24.1 99.75     LegendNANA
03:00 12.2 9.7 85   25 12 24.1 99.77     LegendNANA
04:00 11.5 9.7 89   26 9 24.1 99.75     Mostly Cloudy
05:00 10.6 9.4 92   22 7 24.1 99.76     LegendNANA
06:00 9.9 8.9 94   22 10 24.1 99.78     LegendNANA
07:00 10.6 9.5 93   20 7 24.1 99.78     Mainly Clear
08:00 12.5 10.1 85   21 8 24.1 99.74     LegendNANA
09:00 14.5 9.4 71   24 16 24.1 99.74     LegendNANA
10:00 16.3 9.7 65   25 14 24.1 99.71     Mostly Cloudy
11:00 16.4 8.7 60   25 22 24.1 99.63     LegendNANA
12:00 18.8 7.3 47   26 27 24.1 99.58     LegendNANA
13:00 18.6 7.9 49   26 22 24.1 99.54     Mostly Cloudy
14:00 16.4 7.3 55   26 26 24.1 99.52     LegendNANA
15:00 18.1 8.1 52   28 22 24.1 99.52     LegendNANA
16:00 15.4 10.4 72   26 16 24.1 99.54     Mainly Clear
17:00 15.5 10.2 71   26 14 24.1 99.58     LegendNANA
18:00 13.1 8.2 72   24 8 24.1 99.61     LegendNANA
19:00 12.8 9.3 79   21 8 24.1 99.65     Mostly Cloudy
20:00 12.9 9.5 79   24 10 24.1 99.67     LegendNANA
21:00 11.7 8.6 81   24 7 24.1 99.68     LegendNANA
22:00 10.9 8.6 85   21 10 24.1 99.65     Mainly Clear
23:00 10.4 8.5 88   19 8 24.1 99.62     LegendNANA

Notes on Data Quality.

Legend

  • E = Estimated
  • M = Missing
  • NA = Not Available*
  • [empty] = Indicates an unobserved value
Date modified: